| time (UTC) | temp F | wind direction | speed knots | gust knots | rain 1hr in | rain 24hr in | rain mn in | humidity % | barometer mb |
| 20260506135556 | 64 | 337 | 119.0 | 0.0 | 0.00 | 0.00 | 0.00 | 46 | 986.9 |
| 20260506134556 | 64 | 45 | 0.0 | 0.0 | 0.00 | 0.00 | 0.00 | 46 | 986.9 |
| 20260506133556 | 64 | 292 | 79.1 | 0.0 | 0.00 | 0.00 | 0.00 | 46 | 986.9 |
| 20260506132556 | 64 | 270 | 79.1 | 0.0 | 0.00 | 0.00 | 0.00 | 46 | 986.7 |
| 20260506131556 | 65 | 22 | 0.0 | 0.0 | 0.00 | 0.00 | 0.00 | 46 | 986.5 |
| 20260506130556 | 65 | 22 | 0.0 | 0.0 | 0.00 | 0.00 | 0.00 | 47 | 986.5 |
| 20260506125556 | 64 | 270 | 79.1 | 0.0 | 0.00 | 0.00 | 0.00 | 46 | 986.5 |
| 20260506124556 | 64 | 22 | 0.0 | 0.0 | 0.00 | 0.00 | 0.00 | 47 | 986.5 |
| 20260506123556 | 64 | 337 | 49.5 | 0.0 | 0.00 | 0.00 | 0.00 | 47 | 986.5 |
| 20260506122556 | 64 | 45 | 0.0 | 0.0 | 0.00 | 0.00 | 0.00 | 47 | 986.5 |
| 20260506121556 | 64 | 270 | 79.1 | 0.0 | 0.00 | 0.00 | 0.00 | 48 | 986.5 |
| 20260506120556 | 63 | 45 | 0.0 | 0.0 | 0.00 | 0.00 | 0.00 | 49 | 986.5 |
| 20260506115556 | 63 | 45 | 0.0 | 0.0 | 0.00 | 0.00 | 0.00 | 49 | 986.4 |
| 20260506114556 | 63 | 45 | 0.0 | 0.0 | 0.00 | 0.00 | 0.00 | 48 | 986.4 |
| 20260506113556 | 63 | 22 | 0.0 | 0.0 | 0.00 | 0.00 | 0.00 | 50 | 986.4 |
| 20260506112556 | 63 | 22 | 0.0 | 0.0 | 0.00 | 0.00 | 0.00 | 50 | 986.5 |
| 20260506111556 | 62 | 45 | 0.0 | 0.0 | 0.00 | 0.00 | 0.00 | 51 | 986.7 |
| 20260506110556 | 62 | 45 | 0.0 | 0.0 | 0.00 | 0.00 | 0.00 | 50 | 986.7 |
| 20260506105556 | 62 | 22 | 0.0 | 0.0 | 0.00 | 0.00 | 0.00 | 50 | 986.7 |
| 20260506104556 | 61 | 45 | 0.0 | 0.0 | 0.00 | 0.00 | 0.00 | 51 | 986.7 |
| 20260506103556 | 61 | 45 | 0.0 | 0.0 | 0.00 | 0.00 | 0.00 | 52 | 986.7 |
| 20260506102556 | 61 | 22 | 0.0 | 0.0 | 0.00 | 0.00 | 0.00 | 52 | 986.7 |
| 20260506101556 | 61 | 22 | 0.0 | 0.0 | 0.00 | 0.00 | 0.00 | 52 | 986.7 |
| 20260506100556 | 60 | 337 | 9.6 | 0.0 | 0.00 | 0.00 | 0.00 | 54 | 986.7 |
| 20260506095556 | 60 | 45 | 0.0 | 0.0 | 0.00 | 0.00 | 0.00 | 54 | 986.9 |
| 20260506094556 | 60 | 22 | 0.0 | 0.0 | 0.00 | 0.00 | 0.00 | 56 | 986.9 |
| 20260506093556 | 59 | 22 | 0.0 | 0.0 | 0.00 | 0.00 | 0.00 | 57 | 987.0 |
| 20260506092556 | 59 | 270 | 79.1 | 0.0 | 0.00 | 0.00 | 0.00 | 57 | 987.0 |
| 20260506091556 | 59 | 22 | 0.0 | 0.0 | 0.00 | 0.00 | 0.00 | 59 | 987.0 |
| 20260506090556 | 58 | 22 | 0.0 | 0.0 | 0.00 | 0.00 | 0.00 | 59 | 986.9 |
| 20260506085556 | 58 | 22 | 0.0 | 0.0 | 0.00 | 0.00 | 0.00 | 61 | 986.7 |
| 20260506084556 | 57 | 22 | 0.0 | 0.0 | 0.00 | 0.00 | 0.00 | 61 | 986.9 |
| 20260506083556 | 57 | 22 | 0.0 | 0.0 | 0.00 | 0.00 | 0.00 | 63 | 986.9 |
| 20260506082556 | 56 | 22 | 0.0 | 0.0 | 0.00 | 0.00 | 0.00 | 64 | 986.9 |
| 20260506081556 | 56 | 22 | 0.0 | 0.0 | 0.00 | 0.00 | 0.00 | 66 | 986.7 |
| 20260506080556 | 55 | 22 | 0.0 | 0.0 | 0.00 | 0.00 | 0.00 | 66 | 986.7 |
| 20260506072556 | 53 | 45 | 0.0 | 0.0 | 0.00 | 0.00 | 0.00 | 71 | 986.7 |
| 20260506071556 | 52 | 0 | 0.0 | 0.0 | 0.00 | 0.00 | 0.00 | 73 | 986.7 |
| 20260506070556 | 52 | 0 | 0.0 | 0.0 | 0.00 | 0.00 | 0.00 | 75 | 986.7 |
| 20260506061555 | 47 | 315 | 159.0 | 0.0 | 0.00 | 0.00 | 0.00 | 84 | 986.7 |
| 20260506060556 | 46 | 22 | 0.0 | 0.0 | 0.00 | 0.00 | 0.00 | 85 | 986.7 |
| 20260506050555 | 42 | 315 | 159.0 | 0.0 | 0.00 | 0.00 | 0.00 | 87 | 986.7 |
| 20260506044555 | 42 | 22 | 0.0 | 0.0 | 0.00 | 0.00 | 0.00 | 86 | 986.7 |
| 20260506043555 | 41 | 22 | 0.0 | 0.0 | 0.00 | 0.00 | 0.00 | 86 | 986.7 |
| 20260506042555 | 41 | 22 | 0.0 | 0.0 | 0.00 | 0.00 | 0.00 | 86 | 986.7 |
| 20260506041555 | 41 | 22 | 0.0 | 0.0 | 0.00 | 0.00 | 0.00 | 86 | 986.7 |
| 20260506040555 | 40 | 22 | 0.0 | 0.0 | 0.00 | 0.00 | 0.00 | 85 | 986.5 |
| 20260506035555 | 40 | 22 | 0.0 | 0.0 | 0.00 | 0.00 | 0.00 | 85 | 986.7 |
| 20260506034555 | 40 | 22 | 0.0 | 0.0 | 0.00 | 0.00 | 0.00 | 85 | 986.5 |
| 20260506033555 | 40 | 22 | 0.0 | 0.0 | 0.00 | 0.00 | 0.00 | 84 | 986.7 |
| 20260506032555 | 40 | 270 | 159.0 | 0.0 | 0.00 | 0.00 | 0.00 | 84 | 986.5 |
| 20260506031555 | 40 | 22 | 0.0 | 0.0 | 0.00 | 0.00 | 0.00 | 84 | 986.7 |
| 20260506030555 | 40 | 22 | 0.0 | 0.0 | 0.00 | 0.00 | 0.00 | 84 | 986.9 |
| 20260506025555 | 40 | 22 | 0.0 | 0.0 | 0.00 | 0.00 | 0.00 | 83 | 986.7 |
| 20260506024555 | 40 | 270 | 159.0 | 0.0 | 0.00 | 0.00 | 0.00 | 83 | 986.9 |
| 20260506023555 | 40 | 22 | 0.0 | 0.0 | 0.00 | 0.00 | 0.00 | 83 | 987.0 |
| 20260506022555 | 40 | 337 | 79.1 | 0.0 | 0.00 | 0.00 | 0.00 | 83 | 987.0 |
| 20260506021555 | 41 | 270 | 159.0 | 0.0 | 0.00 | 0.00 | 0.00 | 82 | 987.2 |
| 20260506020555 | 41 | 270 | 159.0 | 0.0 | 0.00 | 0.00 | 0.00 | 82 | 987.2 |
| 20260506015555 | 41 | 270 | 159.0 | 0.0 | 0.00 | 0.00 | 0.00 | 82 | 987.0 |
| 20260506014555 | 41 | 22 | 0.0 | 0.0 | 0.00 | 0.00 | 0.00 | 82 | 987.2 |
| 20260506013555 | 41 | 22 | 0.0 | 0.0 | 0.00 | 0.00 | 0.00 | 81 | 987.4 |
| 20260506012555 | 41 | 22 | 0.0 | 0.0 | 0.00 | 0.00 | 0.00 | 81 | 987.4 |
| 20260506011555 | 42 | 22 | 0.0 | 0.0 | 0.00 | 0.00 | 0.00 | 81 | 987.4 |
| 20260506010555 | 42 | 22 | 0.0 | 0.0 | 0.00 | 0.00 | 0.00 | 81 | 987.4 |
| 20260506005555 | 42 | 22 | 0.0 | 0.0 | 0.00 | 0.00 | 0.00 | 81 | 987.4 |
| 20260506004555 | 42 | 337 | 79.1 | 0.0 | 0.00 | 0.00 | 0.00 | 80 | 987.5 |
| 20260506003555 | 42 | 337 | 79.1 | 0.0 | 0.00 | 0.00 | 0.00 | 80 | 987.4 |
| 20260506002555 | 42 | 337 | 79.1 | 0.0 | 0.00 | 0.00 | 0.00 | 79 | 987.4 |
| 20260506001555 | 43 | 22 | 0.0 | 0.0 | 0.00 | 0.00 | 0.00 | 79 | 987.2 |
| 20260506000555 | 43 | 22 | 0.0 | 0.0 | 0.00 | 0.00 | 0.00 | 79 | 987.4 |
| 20260505235555 | 43 | 337 | 79.1 | 0.0 | 0.00 | 0.00 | 0.00 | 78 | 987.5 |
| 20260505234555 | 44 | 22 | 0.0 | 0.0 | 0.00 | 0.00 | 0.00 | 78 | 987.7 |
| 20260505233555 | 44 | 22 | 0.0 | 0.0 | 0.00 | 0.00 | 0.00 | 78 | 987.7 |
| 20260505232555 | 44 | 270 | 159.0 | 0.0 | 0.00 | 0.00 | 0.00 | 78 | 987.7 |
| 20260505231555 | 44 | 270 | 159.0 | 0.0 | 0.00 | 0.00 | 0.00 | 78 | 987.7 |
| 20260505230555 | 45 | 22 | 0.0 | 0.0 | 0.00 | 0.00 | 0.00 | 77 | 987.7 |
| 20260505225555 | 45 | 22 | 0.0 | 0.0 | 0.00 | 0.00 | 0.00 | 77 | 987.7 |
| 20260505224555 | 45 | 22 | 0.0 | 0.0 | 0.00 | 0.00 | 0.00 | 77 | 987.7 |
| 20260505223555 | 45 | 22 | 0.0 | 0.0 | 0.00 | 0.00 | 0.00 | 77 | 987.7 |
| 20260505222555 | 45 | 22 | 0.0 | 0.0 | 0.00 | 0.00 | 0.00 | 76 | 987.7 |
| 20260505221555 | 45 | 22 | 0.0 | 0.0 | 0.00 | 0.00 | 0.00 | 76 | 987.7 |
| 20260505220555 | 46 | 22 | 0.0 | 0.0 | 0.00 | 0.00 | 0.00 | 76 | 987.7 |
| 20260505215555 | 46 | 22 | 0.0 | 0.0 | 0.00 | 0.00 | 0.00 | 76 | 987.7 |
| 20260505214555 | 46 | 22 | 0.0 | 0.0 | 0.00 | 0.00 | 0.00 | 76 | 987.9 |
| 20260505213555 | 46 | 22 | 0.0 | 0.0 | 0.00 | 0.00 | 0.00 | 76 | 988.0 |
| 20260505212555 | 46 | 22 | 0.0 | 0.0 | 0.00 | 0.00 | 0.00 | 76 | 987.9 |
| 20260505211555 | 46 | 22 | 0.0 | 0.0 | 0.00 | 0.00 | 0.00 | 76 | 988.0 |
| 20260505210555 | 47 | 22 | 0.0 | 0.0 | 0.00 | 0.00 | 0.00 | 76 | 987.9 |
| 20260505205555 | 47 | 22 | 0.0 | 0.0 | 0.00 | 0.00 | 0.00 | 76 | 987.7 |
| 20260505204555 | 47 | 22 | 0.0 | 0.0 | 0.00 | 0.00 | 0.00 | 77 | 988.2 |
| 20260505203555 | 48 | 22 | 0.0 | 0.0 | 0.00 | 0.00 | 0.00 | 77 | 988.2 |
| 20260505202555 | 48 | 22 | 0.0 | 0.0 | 0.00 | 0.00 | 0.00 | 77 | 988.2 |
| 20260505201555 | 48 | 22 | 0.0 | 0.0 | 0.00 | 0.00 | 0.00 | 77 | 988.0 |
| 20260505200555 | 49 | 22 | 0.0 | 0.0 | 0.00 | 0.00 | 0.00 | 78 | 988.0 |
| 20260505195555 | 49 | 22 | 0.0 | 0.0 | 0.00 | 0.00 | 0.00 | 77 | 987.9 |
| 20260505194555 | 49 | 22 | 0.0 | 0.0 | 0.00 | 0.00 | 0.00 | 77 | 988.0 |
| 20260505193555 | 49 | 22 | 0.0 | 0.0 | 0.00 | 0.00 | 0.00 | 76 | 987.9 |
| 20260505192555 | 50 | 22 | 0.0 | 0.0 | 0.00 | 0.00 | 0.00 | 75 | 988.0 |
| 20260505191555 | 51 | 22 | 0.0 | 0.0 | 0.00 | 0.00 | 0.00 | 75 | 987.7 |
| 20260505190555 | 51 | 22 | 0.0 | 0.0 | 0.00 | 0.00 | 0.00 | 75 | 987.5 |
| 20260505185555 | 52 | 22 | 0.0 | 0.0 | 0.00 | 0.00 | 0.00 | 73 | 987.5 |
| 20260505184555 | 52 | 22 | 0.0 | 0.0 | 0.00 | 0.00 | 0.00 | 72 | 987.5 |
| 20260505183555 | 53 | 22 | 0.0 | 0.0 | 0.00 | 0.00 | 0.00 | 71 | 987.5 |
| 20260505182555 | 54 | 22 | 0.0 | 0.0 | 0.00 | 0.00 | 0.00 | 69 | 987.5 |
| 20260505181555 | 55 | 22 | 0.0 | 0.0 | 0.00 | 0.00 | 0.00 | 66 | 987.5 |
| 20260505180555 | 57 | 22 | 0.0 | 0.0 | 0.00 | 0.00 | 0.00 | 63 | 987.5 |
| 20260505175555 | 57 | 22 | 0.0 | 0.0 | 0.00 | 0.00 | 0.00 | 63 | 987.5 |
| 20260505174555 | 58 | 22 | 0.0 | 0.0 | 0.00 | 0.00 | 0.00 | 63 | 987.5 |
| 20260505173555 | 58 | 22 | 0.0 | 0.0 | 0.00 | 0.00 | 0.00 | 62 | 987.5 |
| 20260505172555 | 58 | 22 | 0.0 | 0.0 | 0.00 | 0.00 | 0.00 | 62 | 987.5 |
| 20260505171555 | 58 | 22 | 0.0 | 0.0 | 0.00 | 0.00 | 0.00 | 61 | 987.5 |
| 20260505170555 | 58 | 22 | 0.0 | 0.0 | 0.00 | 0.00 | 0.00 | 61 | 987.7 |
| 20260505165555 | 58 | 22 | 0.0 | 0.0 | 0.00 | 0.00 | 0.00 | 60 | 987.7 |
| 20260505164555 | 59 | 22 | 0.0 | 0.0 | 0.00 | 0.00 | 0.00 | 60 | 987.7 |
| 20260505163555 | 59 | 22 | 0.0 | 0.0 | 0.00 | 0.00 | 0.00 | 59 | 987.7 |
| 20260505162555 | 59 | 22 | 0.0 | 0.0 | 0.00 | 0.00 | 0.00 | 59 | 987.7 |
| 20260505161555 | 60 | 22 | 0.0 | 0.0 | 0.00 | 0.00 | 0.00 | 59 | 987.7 |
| 20260505160555 | 60 | 22 | 0.0 | 0.0 | 0.00 | 0.00 | 0.00 | 59 | 987.7 |
| 20260505152555 | 61 | 22 | 0.0 | 0.0 | 0.00 | 0.00 | 0.00 | 58 | 988.2 |
| 20260505151555 | 61 | 0 | 0.0 | 0.0 | 0.00 | 0.00 | 0.00 | 58 | 988.0 |
| 20260505150555 | 61 | 0 | 0.0 | 0.0 | 0.00 | 0.00 | 0.00 | 57 | 988.0 |
| 20260505140555 | 62 | 0 | 0.0 | 0.0 | 0.00 | 0.00 | 0.00 | 59 | 988.2 |